Theta_e
297 297 298 299 299 300 301 302 302 302 302 302 302 302 302 302 303 303 303 303 302 300 299 299 299 299 299 298 299 299 299 300 300 300 300 301 301 301 301 301 301 301 301 300 300 299 298 297 296 295 294 294 293 293 293 293 294 294 294 294 294 295 295 295 294 294 294 294 294 294 293 293 292 292 291 291 291 290 291 291 291 291 291 291 291
295 295 296 296 297 297 299 300 301 301 302 302 302 302 302 301 301 302 302 303 303 302 301 300 299 298 298 298 298 298 298 298 299 299 299 300 300 300 300 300 300 300 300 300 300 300 299 298 297 296 295 294 293 293 293 293 293 293 294 294 294 294 294 294 294 294 294 294 294 294 293 292 292 292 291 290 290 290 290 290 290 291 291 291 291
295 295 295 295 295 295 296 296 298 299 300 301 301 302 302 301 301 300 300 300 301 301 302 301 300 299 298 297 297 297 297 297 297 298 298 299 299 299 300 300 300 300 300 300 300 300 300 299 298 297 296 295 294 293 293 293 293 293 293 294 294 294 294 294 294 294 294 294 293 294 293 293 292 291 290 289 289 289 289 290 290 290 291 291 291
295 295 295 295 294 294 295 295 295 296 297 298 299 300 301 301 301 300 300 299 299 299 300 301 301 300 299 298 297 297 297 297 297 297 298 298 298 298 299 299 300 300 300 300 300 300 300 300 299 298 297 296 295 294 293 293 293 293 293 293 293 293 294 294 294 293 293 293 293 293 293 293 292 291 290 289 289 289 289 289 290 290 290 290 290
294 294 294 294 295 295 295 295 296 296 295 295 296 297 298 299 300 300 300 300 299 298 298 299 299 300 299 299 297 297 297 296 296 296 297 297 297 297 298 298 299 299 299 300 300 300 300 300 300 300 299 297 296 295 294 293 293 292 292 293 293 293 293 293 293 293 293 293 293 293 292 292 291 290 290 289 289 289 289 289 289 289 290 289 289
293 293 293 293 294 294 294 295 295 295 295 295 295 295 295 296 297 298 299 299 299 299 298 297 297 298 298 298 297 297 296 296 296 295 295 296 296 296 296 297 297 298 298 299 299 299 299 300 300 299 299 299 298 297 296 295 293 293 293 293 293 292 293 293 293 293 292 292 292 292 292 292 291 291 290 289 288 288 288 289 289 289 289 289 289
290 291 291 291 291 291 292 292 292 292 292 293 294 294 294 294 294 295 296 297 298 299 299 298 297 297 297 297 297 297 296 295 295 295 294 294 295 295 296 296 296 296 297 297 298 298 299 299 299 298 298 299 299 298 297 296 294 293 293 293 292 292 292 292 292 292 292 291 291 291 291 291 291 290 290 289 288 288 288 288 288 289 289 289 289
289 289 289 289 289 289 289 290 290 290 290 290 291 292 293 293 293 294 294 294 295 297 297 298 297 297 296 295 296 296 296 295 294 294 294 294 294 294 294 295 295 295 296 296 296 297 297 298 298 298 299 299 299 298 298 296 295 294 293 292 292 292 292 292 292 292 292 291 291 290 290 290 290 290 289 289 288 288 288 288 288 289 289 289 289
288 288 288 288 288 288 288 288 288 289 289 289 289 290 290 291 292 292 293 293 293 294 295 297 297 297 296 295 295 295 295 295 294 293 293 293 293 293 293 294 294 294 295 295 296 296 297 297 297 298 298 298 298 297 297 296 295 294 293 293 292 292 291 291 291 291 291 291 290 290 290 290 290 290 290 290 289 289 289 289 288 288 289 289 289
288 288 288 288 288 288 288 288 288 287 288 288 288 288 288 289 289 290 291 291 292 292 293 294 295 296 297 297 296 294 294 294 294 293 292 292 292 292 292 293 293 293 293 294 294 295 296 296 297 297 297 296 297 296 295 294 294 293 293 292 292 292 291 291 291 291 291 291 291 291 290 290 291 291 290 290 290 289 289 289 289 288 289 289 288
287 287 287 287 287 287 287 287 287 287 287 287 287 287 287 287 288 288 288 289 290 291 292 292 293 294 295 296 296 296 295 294 293 292 292 291 291 291 292 292 292 292 292 293 293 294 294 295 295 296 295 295 295 295 294 294 293 292 291 291 291 291 291 291 291 291 291 291 291 291 291 291 291 291 291 290 290 289 289 289 289 289 289 289 288
287 287 287 287 287 287 287 287 287 287 287 287 287 287 286 286 287 287 287 287 288 288 289 290 291 292 293 294 295 296 296 295 293 292 292 291 291 291 291 291 291 291 292 292 292 292 293 293 294 294 295 295 295 294 294 293 292 291 290 289 289 289 290 290 291 291 291 291 291 291 291 291 291 291 291 290 290 289 289 289 289 289 289 289 288
287 287 287 287 287 287 287 287 287 287 287 287 287 286 286 286 286 286 286 286 287 287 287 288 288 289 290 291 292 293 294 295 294 293 292 291 291 290 290 290 290 291 291 291 292 292 292 292 292 293 294 294 294 293 293 293 292 291 289 288 288 288 288 289 289 290 290 291 291 291 291 291 291 291 291 290 289 289 288 289 289 289 289 288 288
287 287 287 287 287 286 286 286 286 286 286 286 286 286 286 286 286 286 286 286 286 286 286 286 287 287 288 288 289 291 292 293 293 294 293 292 291 290 290 290 290 290 290 291 291 291 291 292 292 292 292 293 293 293 293 292 292 291 289 288 288 288 287 287 288 288 289 289 290 290 290 290 291 290 290 290 289 288 288 289 289 289 288 287 287
287 287 287 287 287 286 286 286 286 286 286 286 286 286 286 286 286 286 286 286 286 286 286 285 286 286 286 286 287 288 290 290 291 292 293 293 291 290 290 290 290 290 290 290 290 290 291 291 291 291 291 292 292 292 292 292 291 290 289 289 288 288 288 288 287 287 288 288 288 288 288 288 289 289 289 289 288 288 288 288 288 287 287 286 286
286 286 286 286 286 286 286 286 286 286 286 286 286 286 286 286 286 286 286 286 286 286 286 285 285 285 285 285 285 286 287 288 289 290 291 292 292 290 290 290 290 290 289 289 290 290 290 290 290 290 290 291 291 291 291 291 290 289 289 289 288 288 288 288 287 287 287 288 288 288 287 287 287 287 287 287 287 287 287 286 286 286 285 285 285
285 285 285 285 285 285 285 285 285 286 286 286 286 286 285 286 286 286 285 285 286 286 286 286 286 286 285 285 285 285 286 286 286 287 289 290 291 291 290 290 289 290 290 289 289 289 289 290 290 290 290 290 290 290 290 289 289 288 288 287 287 287 288 288 287 287 287 287 287 287 286 286 286 286 286 286 286 286 286 286 286 285 285 285 285
285 285 284 284 284 284 284 284 284 284 285 285 285 285 285 285 285 285 285 285 285 286 286 286 286 286 286 286 286 285 285 285 285 286 286 288 289 290 291 290 289 289 290 289 289 288 289 289 289 289 289 289 289 289 289 289 288 287 287 286 286 286 287 287 286 286 286 286 286 285 285 285 285 285 285 285 285 285 285 285 285 285 284 284 284
284 284 283 283 283 283 282 282 283 283 283 284 284 284 284 285 285 285 284 284 284 285 285 285 286 286 286 286 286 286 286 286 285 285 285 286 287 288 290 290 289 289 289 289 289 288 288 289 288 288 289 289 289 289 288 288 287 287 286 286 285 286 287 286 285 285 285 285 285 285 284 284 284 284 284 284 284 284 284 284 284 284 284 284 284
282 281 281 281 281 281 281 281 281 281 282 282 282 283 283 284 284 284 284 284 284 284 284 284 285 285 286 286 286 286 286 286 286 285 285 285 285 286 288 290 290 290 289 288 288 288 288 288 288 288 288 288 288 288 288 287 287 286 286 285 286 286 286 285 285 285 285 285 286 285 285 285 285 284 283 283 282 283 283 284 284 284 283 283 283
280 280 280 280 280 280 280 280 280 281 281 281 281 281 282 282 282 283 283 283 283 284 284 284 284 284 285 285 286 286 286 286 286 285 285 285 285 285 286 287 289 291 290 288 288 288 288 288 288 288 288 288 288 288 287 286 286 286 285 285 286 286 285 285 285 285 284 285 285 285 284 284 284 283 283 282 282 283 284 285 285 284 283 283 282
278 278 278 278 278 279 279 279 279 279 279 279 279 280 281 281 281 281 282 282 283 283 283 284 284 284 285 285 285 286 286 286 286 286 285 285 285 285 285 285 287 289 290 289 288 287 287 287 287 288 288 287 287 287 287 286 285 285 286 286 285 285 285 285 285 284 284 284 284 284 284 284 284 283 283 282 282 283 284 284 283 283 283 282 281
276 276 277 277 277 277 277 277 277 277 277 277 277 277 279 279 279 280 280 281 281 282 283 283 283 283 284 284 285 285 286 286 286 286 285 285 285 285 285 285 285 287 289 290 289 288 287 287 287 287 287 287 287 287 287 286 285 285 285 286 285 284 284 284 284 283 283 283 283 283 283 283 283 283 283 282 282 283 283 283 282 282 282 281 280
275 275 275 275 275 275 274 274 274 274 274 274 274 274 276 276 276 277 278 278 278 280 281 282 282 282 283 284 284 285 285 286 286 285 285 285 285 285 285 285 285 286 288 290 290 288 287 286 286 287 286 287 286 286 286 286 286 285 285 285 284 283 283 283 283 283 283 282 282 282 282 283 283 283 283 283 283 283 282 281 281 281 281 280 280
273 273 273 273 273 273 272 272 272 272 272 272 271 272 272 272 273 274 275 275 276 277 278 280 280 280 281 283 284 284 285 285 285 285 284 284 285 284 285 285 284 285 287 289 290 289 288 286 286 286 286 286 286 285 285 285 286 285 284 284 283 283 282 282 282 282 282 282 282 282 282 282 283 283 283 283 282 282 281 280 281 281 281 280 279
271 271 271 271 271 271 270 270 270 270 270 270 270 270 270 270 270 271 271 272 273 274 275 276 277 278 279 280 282 284 284 284 285 285 284 284 284 284 285 285 284 284 286 288 289 289 288 286 286 286 286 286 285 284 284 284 284 284 284 283 283 282 282 282 282 281 281 281 281 281 282 282 282 282 282 282 281 280 280 280 281 280 280 279 279
268 268 268 267 267 267 266 266 267 267 267 267 268 268 268 268 268 269 269 270 271 272 273 274 275 276 277 278 280 282 282 283 284 284 284 284 284 284 284 284 284 284 285 287 288 288 287 286 286 286 286 286 285 284 284 283 283 283 283 283 283 282 282 281 281 281 281 281 281 281 282 282 282 282 281 281 280 280 280 280 280 279 279 278 278
266 265 265 264 263 263 263 263 264 264 264 265 265 265 266 266 267 267 268 269 269 270 271 273 274 275 276 277 278 279 279 281 282 284 284 283 283 283 283 284 284 283 283 285 287 288 287 286 285 285 285 285 285 284 282 282 282 282 282 283 282 282 281 281 281 281 281 281 281 281 281 281 281 281 280 280 279 280 280 279 279 278 278 278 277
264 263 262 262 261 262 262 262 262 262 263 263 263 264 264 265 265 266 267 267 268 269 271 272 273 274 274 275 276 277 277 279 281 282 282 282 282 282 283 283 284 283 283 285 286 286 285 285 285 285 285 284 284 283 282 282 282 282 282 283 282 281 281 281 281 280 280 280 280 280 281 281 281 280 280 280 280 280 279 279 278 278 277 277 277
262 262 261 261 261 261 261 261 262 262 262 262 263 263 263 263 264 265 266 266 267 268 269 270 271 272 273 274 275 276 276 278 279 280 280 281 281 282 282 283 283 282 283 285 285 284 284 285 285 284 284 284 283 283 282 281 281 282 282 282 282 281 281 281 281 280 280 279 280 280 281 281 280 280 280 280 280 279 278 278 278 277 277 276 277
261 261 261 261 261 261 261 261 261 261 262 262 262 262 263 263 263 264 265 265 266 267 268 269 269 271 271 272 273 274 275 276 277 278 279 280 281 282 282 283 283 281 282 284 285 284 284 284 284 284 284 284 284 283 282 281 281 281 282 282 282 281 281 281 281 280 279 279 280 280 280 280 280 280 280 280 279 278 278 277 277 277 277 276 276
260 261 261 260 261 261 261 261 261 261 261 262 262 262 262 263 263 263 264 265 265 266 267 268 269 270 271 272 272 273 274 275 276 277 277 279 281 282 282 282 283 282 282 283 284 284 283 284 284 284 284 284 284 283 282 282 281 281 282 281 281 280 281 281 281 281 280 281 281 280 280 280 280 280 280 279 278 277 277 277 277 277 277 276 276
260 260 260 260 260 260 260 261 261 261 261 262 262 262 262 263 263 263 264 264 265 265 266 267 268 270 271 272 273 274 275 275 276 277 278 279 280 282 282 282 283 283 283 283 283 283 283 283 284 284 283 283 283 282 282 281 281 281 281 281 281 280 280 281 282 282 282 282 281 280 280 279 279 279 278 278 277 277 277 277 277 276 276 276 276
261 261 261 261 260 260 260 260 261 261 261 261 262 262 262 263 263 263 264 264 264 265 265 266 268 269 271 272 274 275 275 276 277 278 278 279 280 281 282 283 283 283 283 283 283 283 283 283 283 284 283 283 282 282 281 281 281 281 281 281 281 280 280 281 281 282 282 281 280 280 279 279 279 278 278 277 277 277 277 277 276 276 276 276 276
261 261 261 261 260 260 260 260 260 261 261 261 262 262 262 263 263 263 263 263 264 264 265 266 267 268 269 271 273 274 275 276 277 278 278 279 281 282 282 283 283 283 283 283 283 283 283 283 283 283 283 282 282 281 281 281 281 280 280 280 280 280 280 281 281 281 281 280 280 279 279 278 278 277 277 277 277 277 277 276 276 276 275 275 275
260 261 261 261 261 261 261 260 260 261 261 261 261 261 262 262 262 263 263 264 264 265 266 266 267 268 268 270 271 273 273 274 275 277 278 279 280 282 283 283 283 283 282 283 283 283 283 283 283 283 282 281 281 281 281 281 280 280 280 280 281 281 281 281 281 281 281 280 279 279 278 278 277 277 277 277 277 276 276 276 275 275 275 275 275
261 261 261 262 262 261 261 261 261 261 261 261 261 261 262 262 263 263 264 264 265 266 266 267 268 269 269 270 271 272 273 274 275 277 278 278 280 281 282 283 283 283 282 282 283 283 283 283 283 282 282 281 281 281 280 280 280 280 280 280 281 281 281 280 281 281 280 279 278 278 278 277 277 277 277 277 276 276 275 275 275 275 275 275 275
262 262 263 263 262 262 261 261 261 261 261 261 261 261 262 262 262 263 263 264 265 265 266 267 267 268 269 271 272 272 273 274 275 276 277 278 279 280 282 283 283 283 282 282 282 283 283 283 282 282 281 281 281 281 280 280 280 280 280 280 280 280 280 280 280 280 279 279 278 278 277 276 276 276 276 276 275 275 275 275 274 274 274 274 274
263 263 263 263 263 262 262 262 262 262 261 261 262 262 262 262 263 263 264 264 265 266 266 267 267 268 270 271 272 273 273 274 275 276 277 278 279 281 282 283 283 282 282 282 282 282 283 283 282 281 280 280 280 281 280 280 280 280 280 280 280 280 279 280 280 279 279 278 278 277 276 276 276 276 275 275 275 275 275 274 274 274 274 274 274
263 263 264 264 264 263 263 263 262 262 262 262 262 262 262 263 263 264 264 265 265 266 266 267 268 269 270 271 272 273 274 275 276 277 277 278 279 281 282 283 283 282 282 282 282 282 282 282 281 281 280 280 280 280 281 281 280 280 280 280 280 279 279 279 279 279 279 278 277 277 276 276 275 275 275 274 274 274 274 274 274 274 274 274 274
263 263 264 264 264 264 264 264 264 264 264 263 263 263 263 263 263 263 264 264 265 265 266 266 267 269 270 271 272 274 275 275 276 277 277 278 279 280 282 282 282 282 282 282 281 281 282 282 281 280 280 279 280 280 281 281 280 280 280 279 279 279 279 279 279 278 278 278 277 276 275 275 275 275 274 274 274 274 273 273 273 274 274 274 274
265 265 265 265 265 265 265 265 265 265 265 265 265 264 264 264 264 264 264 264 264 265 265 266 267 269 271 272 273 274 275 276 276 277 278 278 279 280 281 282 282 282 282 281 281 281 281 281 281 280 280 279 280 281 281 281 280 280 279 279 278 278 278 278 278 277 277 277 276 275 275 274 274 274 274 273 273 273 273 273 273 273 273 273 273
265 265 265 264 264 265 265 265 266 266 266 266 266 266 265 265 265 264 264 264 265 265 266 267 268 270 272 273 273 275 276 276 276 277 278 278 278 279 280 281 282 282 281 281 281 281 281 281 281 280 280 280 281 281 281 281 281 280 279 278 278 278 278 277 277 276 276 276 275 274 274 274 273 273 273 273 273 273 273 273 273 273 273 273 272
265 265 265 265 265 265 265 265 265 266 267 267 267 267 266 266 266 266 266 266 266 266 267 268 270 271 272 273 274 275 275 276 276 277 277 278 278 279 280 281 281 281 281 281 281 281 281 281 281 280 280 280 280 281 281 281 280 280 279 279 278 277 277 277 276 276 276 275 274 274 273 273 273 273 273 273 273 273 273 273 273 272 272 272 272
266 266 266 266 266 266 265 266 266 267 267 268 268 268 268 267 267 267 267 268 268 269 269 270 271 272 273 274 274 275 275 275 276 276 277 278 279 279 279 280 280 281 281 281 280 280 280 280 280 280 280 280 280 280 280 280 279 279 279 278 278 277 276 276 276 276 275 275 274 274 273 273 273 273 273 273 273 272 272 272 272 272 272 272 272
266 266 266 267 267 266 267 267 267 268 268 268 269 269 269 269 269 269 269 269 270 270 271 271 272 272 273 274 274 275 275 275 276 276 277 278 279 279 279 280 280 280 280 280 280 280 280 280 280 280 280 280 280 280 279 279 277 276 276 276 276 276 275 275 275 275 274 274 274 274 274 273 273 273 273 272 272 272 272 272 271 271 271 271 271
267 267 266 267 267 267 267 268 268 268 268 269 269 269 269 270 270 270 270 270 271 271 272 272 273 273 273 274 274 275 275 275 276 277 277 278 279 279 279 279 279 280 280 280 279 279 279 279 279 279 279 279 279 278 277 277 276 275 274 274 274 274 274 274 274 274 273 273 273 273 273 273 273 273 272 272 271 271 271 271 271 271 271 271 271
268 267 267 267 267 268 268 268 268 268 269 269 269 269 270 270 270 270 271 271 272 272 272 273 273 273 274 274 274 275 275 276 276 277 277 278 278 279 279 279 279 279 279 279 279 279 279 278 278 278 278 278 278 277 276 275 274 274 273 273 273 274 274 274 273 273 273 273 273 273 273 273 272 272 272 271 271 271 271 270 270 270 271 271 271
268 268 268 268 268 268 268 268 268 268 269 269 269 269 270 270 271 271 271 272 272 272 273 273 273 273 274 274 274 275 275 276 276 276 277 278 278 278 278 278 278 278 278 278 278 278 277 277 277 277 277 277 277 276 275 274 274 273 273 273 273 273 273 273 273 273 273 273 273 273 272 272 272 272 271 271 270 270 270 270 270 270 270 271 270
269 268 268 268 268 268 268 268 268 269 269 269 269 269 269 270 270 271 271 271 272 272 272 272 273 273 273 274 274 275 275 275 276 276 277 277 277 277 277 277 277 277 277 277 276 276 276 276 276 276 276 275 275 274 274 273 273 273 273 273 273 273 273 273 273 273 273 273 272 272 272 272 271 271 271 270 270 270 270 270 270 270 270 270 270
269 269 269 269 269 269 269 269 269 269 269 269 269 269 269 270 270 270 271 271 271 272 272 272 272 273 273 273 274 274 275 275 275 276 276 277 277 276 276 276 276 276 276 276 275 275 275 274 274 274 274 273 273 273 273 273 273 273 273 273 273 273 273 273 272 272 272 272 272 272 272 271 271 270 270 270 269 269 269 269 269 269 269 269 269
Wind_Speed
22 23 23 23 23 22 21 21 20 19 18 17 17 17 15 15 16 18 20 21 21 21 23 25 26 28 31 33 34 35 36 37 38 39 41 43 45 46 47 49 50 51 52 54 55 55 55 55 56 55 55 54 53 53 52 50 49 48 47 46 45 43 41 40 38 37 35 32 29 27 26 26 27 27 29 30 29 28 25 23 21 19 17 16 16
23 24 24 24 24 23 23 22 20 20 19 19 18 18 18 18 17 17 19 21 22 23 23 24 25 26 29 32 33 34 35 36 38 39 42 43 45 46 47 48 49 50 52 53 54 54 55 56 56 56 55 54 54 54 53 52 51 51 50 49 48 46 44 42 41 40 39 35 32 30 28 28 29 28 29 29 28 27 26 24 22 20 19 18 17
26 25 25 25 24 24 23 23 22 21 21 20 20 20 20 20 19 19 19 20 22 23 24 25 25 26 28 30 32 34 35 36 37 39 41 42 45 46 46 47 48 49 51 52 53 52 53 55 56 56 55 54 55 55 55 54 53 53 52 51 50 48 46 44 42 42 41 38 35 34 32 31 30 29 29 28 28 27 25 24 23 21 19 18 18
26 26 25 25 24 24 24 24 24 24 24 23 23 23 23 22 21 21 20 20 20 22 23 24 25 27 28 29 31 33 34 36 37 39 40 41 43 45 46 47 48 49 49 50 51 51 51 52 54 55 55 55 56 56 56 56 56 55 54 53 52 51 48 46 44 43 42 40 37 35 34 33 31 30 29 28 28 26 25 24 23 21 20 19 19
26 26 25 25 25 25 26 26 26 26 26 25 24 24 23 23 23 22 22 21 21 21 22 23 24 26 27 28 29 30 32 34 36 38 39 40 41 43 46 48 49 50 50 49 50 50 51 52 52 53 53 55 57 58 58 58 57 57 56 55 54 52 50 48 46 45 44 42 40 37 36 35 33 31 30 29 28 26 25 24 23 21 20 20 20
24 25 26 26 26 26 26 27 26 26 25 24 24 24 24 24 24 23 23 23 22 22 21 22 23 25 26 27 27 28 30 31 35 37 39 40 41 42 44 46 48 50 51 51 50 50 52 52 52 52 53 54 56 58 58 59 58 58 58 57 56 54 53 50 48 47 46 45 43 40 38 37 35 34 31 29 28 27 26 25 24 23 22 21 21
24 24 25 26 26 26 26 25 25 25 24 24 24 24 23 23 23 24 24 24 24 24 23 22 22 23 25 26 27 27 28 30 32 35 37 40 41 41 43 44 46 49 50 51 52 52 53 52 52 53 54 55 56 58 59 59 59 60 60 59 58 57 55 53 50 49 48 48 47 44 41 39 37 35 33 30 29 29 28 27 26 25 24 23 22
25 25 26 26 26 26 26 26 25 26 26 25 25 24 24 24 23 23 23 24 25 25 25 24 23 23 24 25 26 27 28 29 31 33 35 38 39 41 42 42 44 47 49 50 52 53 54 54 54 53 54 55 55 57 59 60 60 61 62 61 60 58 57 55 53 52 51 50 49 47 44 42 39 37 35 33 32 32 31 29 28 27 26 24 23
25 26 26 27 28 28 28 27 27 27 27 27 27 27 26 25 25 24 23 23 24 24 25 25 25 24 24 24 25 26 28 29 30 31 33 35 37 39 40 41 43 46 48 49 51 52 53 54 55 54 53 54 55 56 58 60 62 63 63 62 61 60 59 58 56 55 54 53 52 50 48 46 43 40 38 36 34 34 33 31 30 29 28 26 24
27 27 27 28 29 29 29 29 29 28 27 27 28 28 28 28 27 27 26 25 24 24 24 25 26 26 26 25 25 26 28 29 29 29 30 32 35 36 38 40 42 45 47 49 51 51 51 53 55 55 54 54 54 56 57 60 62 63 63 62 61 61 61 60 59 58 56 55 54 53 51 49 45 42 40 38 36 36 35 34 32 31 30 28 26
27 28 28 29 30 30 31 31 30 30 29 29 28 28 28 28 28 28 28 28 27 26 25 25 25 26 27 27 27 27 28 28 27 27 28 29 32 35 36 39 42 44 46 48 50 51 51 51 53 55 56 55 55 55 56 59 61 62 63 62 62 61 61 60 60 60 58 57 56 54 53 51 47 43 42 40 39 38 37 35 34 32 31 29 27
28 28 29 30 31 32 33 33 33 32 31 31 31 31 30 29 28 28 28 29 29 29 28 27 27 26 27 28 28 28 28 27 27 27 27 27 29 32 36 38 41 44 46 47 49 50 51 51 51 53 55 56 55 55 56 58 60 61 62 62 63 62 61 60 60 59 59 58 56 55 53 51 48 45 43 42 40 39 38 36 35 33 32 30 27
28 29 29 30 32 33 35 36 36 36 35 34 34 33 33 33 32 30 29 29 29 29 29 29 29 29 29 30 30 30 29 28 27 27 27 27 27 29 32 37 41 43 45 46 47 49 50 50 51 53 54 54 55 56 57 58 58 59 60 61 62 62 62 61 60 59 57 56 56 55 53 50 48 46 44 42 40 39 39 37 35 34 32 30 28
31 31 31 32 32 33 35 37 38 39 38 38 37 37 37 37 36 35 33 32 31 30 30 30 30 31 32 32 33 33 32 30 29 28 27 27 27 27 29 33 38 42 44 46 47 48 49 50 51 53 53 53 54 56 57 57 58 58 59 61 62 62 62 61 61 60 58 55 53 51 49 48 47 46 43 40 39 39 39 38 36 35 33 31 29
37 36 36 36 36 35 36 37 38 39 40 40 40 40 40 40 39 39 38 36 35 33 32 31 31 31 31 32 35 36 35 34 32 30 29 28 27 27 29 31 35 40 43 45 46 47 48 50 51 52 53 53 54 56 57 57 56 56 58 60 62 63 62 62 62 61 59 56 53 49 45 43 43 44 42 40 39 39 38 37 36 34 33 32 31
42 41 41 40 40 40 40 40 40 41 41 41 42 42 43 43 42 42 41 40 40 38 36 35 34 33 32 32 33 36 36 36 36 34 32 29 27 27 30 31 34 38 42 44 45 46 47 48 50 52 53 53 54 55 56 55 54 55 57 59 61 62 62 62 62 61 59 56 52 50 46 42 41 42 43 42 41 40 39 38 36 35 35 34 32
46 45 44 44 44 44 44 44 44 43 43 43 43 44 44 45 45 45 44 43 43 42 41 40 38 37 36 35 34 36 36 36 36 37 35 33 30 29 30 32 34 38 41 43 44 45 45 46 48 50 51 52 53 54 55 54 52 53 56 57 58 60 61 61 61 60 58 55 53 50 47 44 44 44 44 44 43 42 41 40 38 37 37 35 31
49 48 48 47 46 46 46 46 47 47 46 46 46 45 46 47 47 47 47 47 47 46 44 44 44 42 40 38 38 38 38 36 36 37 37 36 34 32 31 32 35 39 41 41 43 44 45 46 47 49 51 51 52 53 54 53 52 53 54 55 56 58 60 60 60 60 58 56 54 49 46 45 45 45 44 43 42 41 41 39 37 36 36 34 30
50 50 50 50 49 49 49 49 49 49 49 49 49 49 49 49 49 49 49 50 50 50 48 47 47 46 45 43 41 41 40 38 37 37 37 37 36 35 33 33 35 39 40 40 42 44 46 47 48 49 50 50 50 50 52 53 52 52 52 54 56 59 59 59 59 59 59 57 54 50 47 47 46 45 44 42 40 40 39 37 36 36 35 32 30
50 50 50 51 51 52 52 51 51 52 52 51 51 51 51 51 51 51 51 52 52 53 52 51 51 50 49 47 46 44 43 41 39 37 37 38 37 36 35 35 37 38 38 39 42 45 47 47 47 48 49 48 48 49 50 52 51 50 51 53 56 57 56 56 55 56 57 57 55 51 50 49 48 46 45 42 40 40 39 39 38 36 33 32 30
51 51 51 52 53 54 54 54 54 54 54 54 54 55 54 54 54 54 54 55 54 55 55 54 54 54 52 50 49 48 46 44 42 39 38 38 38 37 37 38 40 39 38 40 43 46 47 48 48 48 48 48 47 47 49 50 49 49 50 52 53 52 51 52 53 53 54 55 54 52 52 51 50 49 46 43 42 42 41 40 37 34 31 31 30
54 53 54 54 54 54 54 54 55 56 56 56 56 57 58 57 56 56 56 57 57 57 57 56 57 57 56 55 53 51 49 47 45 43 40 39 39 39 39 40 40 38 38 41 45 46 47 48 48 47 47 47 47 46 47 47 47 48 49 49 48 48 49 50 50 50 52 53 54 54 54 54 52 50 48 46 44 42 40 38 35 32 31 30 29
55 55 56 55 55 55 54 54 55 56 56 56 56 58 60 60 59 58 58 58 58 58 58 57 57 58 58 58 57 55 53 50 48 46 44 41 40 40 40 40 39 36 37 41 44 46 47 48 48 46 45 46 46 46 45 45 45 47 47 46 45 47 48 49 50 50 52 54 55 56 56 55 53 52 50 46 42 39 38 35 33 32 32 30 28
56 57 58 57 57 57 56 55 56 56 57 57 57 58 60 60 60 60 59 58 59 60 60 60 60 59 60 60 60 59 58 56 52 49 46 43 42 41 41 41 39 36 36 39 42 44 46 47 47 45 44 44 45 45 44 44 43 44 44 44 44 46 49 51 51 52 53 55 57 57 56 55 54 52 48 43 40 38 36 33 33 33 32 31 29
60 62 64 64 63 62 60 59 58 58 57 56 56 58 59 60 60 61 61 60 60 61 61 61 61 60 61 61 61 61 61 61 58 53 49 46 44 43 43 43 41 37 36 37 40 42 45 46 44 42 42 42 42 43 43 42 42 41 42 42 42 45 49 52 53 54 55 57 59 58 56 54 51 47 42 40 39 37 34 33 34 34 33 31 30
59 61 64 66 67 67 65 65 65 64 63 61 61 63 63 63 64 65 64 64 64 64 64 63 62 60 60 62 63 63 62 63 62 59 53 49 46 44 43 43 42 39 36 36 37 39 43 45 43 41 41 40 40 41 42 41 39 37 37 39 42 45 49 52 54 56 57 58 58 56 54 52 48 43 41 40 39 36 34 34 35 33 32 31 29
54 56 57 59 61 62 62 64 66 66 66 66 66 67 66 64 63 64 63 60 56 55 56 56 54 52 53 58 61 62 62 62 63 62 58 52 49 46 44 44 42 39 37 37 36 38 41 44 43 42 42 40 38 39 40 39 38 37 38 41 43 46 50 53 54 55 56 55 54 53 52 50 46 44 43 41 38 36 35 35 34 32 31 29 27
51 53 53 53 53 53 52 54 54 54 56 56 55 57 58 55 53 55 56 51 45 43 43 42 41 41 43 48 51 54 58 61 62 63 61 55 50 47 45 44 43 40 38 37 37 37 39 41 42 42 41 40 39 38 37 36 36 38 40 43 45 46 49 50 50 51 53 53 52 52 51 49 47 46 44 40 37 36 36 34 32 31 29 27 26
49 50 49 47 45 44 43 44 43 42 43 43 42 44 46 45 44 47 50 46 40 38 38 38 39 39 39 40 41 43 52 60 60 58 57 54 50 48 46 45 43 40 35 33 34 36 38 41 42 43 42 42 41 40 38 37 36 37 40 45 47 48 49 49 48 49 51 51 51 51 49 47 46 45 41 38 37 37 35 33 31 30 28 26 25
46 46 44 41 40 39 39 40 40 39 40 40 41 42 43 42 41 44 47 45 40 39 40 42 43 42 41 42 43 43 50 57 57 52 49 45 43 44 46 46 45 42 35 29 29 34 39 42 44 46 45 44 44 42 41 40 38 37 40 45 49 50 49 47 46 48 50 50 50 49 47 46 45 42 39 38 38 37 35 32 30 29 27 25 23
42 43 42 40 39 39 39 40 40 40 40 40 41 43 45 44 42 40 42 43 42 41 42 45 47 47 47 50 52 53 55 58 58 56 50 42 37 38 39 40 41 40 36 30 29 35 41 44 46 48 48 47 46 45 43 42 40 39 41 44 48 50 49 47 46 47 49 49 48 47 47 46 43 40 39 39 38 36 34 31 30 28 25 23 21
40 41 41 42 41 39 39 39 39 39 39 39 39 41 42 43 42 39 37 37 37 37 38 40 43 44 44 46 48 51 53 54 54 53 49 42 39 38 36 35 34 34 32 30 31 37 43 46 48 50 50 49 47 45 43 42 42 43 44 45 47 48 49 48 46 45 46 46 46 47 46 44 41 39 39 38 37 35 32 30 28 26 24 22 21
39 41 41 41 40 38 37 37 38 38 38 38 38 38 38 40 41 40 37 35 35 35 36 36 38 39 39 40 41 44 47 48 47 46 43 39 39 39 37 36 34 31 30 31 33 39 45 48 49 50 50 49 46 43 42 42 43 45 47 48 48 47 48 48 45 44 44 45 46 46 45 42 40 39 38 36 34 32 29 27 25 24 23 22 21
37 39 40 40 39 37 36 36 36 37 37 36 36 36 37 37 38 38 38 37 36 34 32 31 32 33 34 35 35 36 38 39 40 40 40 39 39 38 37 37 35 32 31 34 37 41 46 49 50 49 48 46 44 42 42 43 44 45 47 49 48 48 49 48 46 45 46 46 45 44 42 41 41 41 39 37 34 31 29 27 25 24 23 22 21
36 38 39 39 38 36 36 35 35 35 35 35 35 35 36 36 36 37 39 39 38 36 33 32 31 31 30 30 31 31 32 33 33 34 35 37 36 36 37 38 37 34 34 37 40 42 46 49 50 47 44 44 44 43 43 44 46 47 48 50 50 50 50 48 46 45 45 43 42 41 41 40 39 38 36 35 33 31 29 27 25 24 22 21 20
36 37 37 37 37 37 37 37 36 36 35 35 35 35 36 36 36 36 36 36 35 34 33 33 32 31 29 28 27 27 30 33 32 31 31 32 32 34 37 40 40 37 35 37 40 42 45 48 48 45 42 43 43 43 43 45 47 48 49 51 51 51 50 48 46 44 42 41 41 40 39 37 36 34 33 31 29 28 26 25 24 23 21 20 19
34 34 35 35 35 36 37 38 38 38 37 35 34 34 34 34 34 34 34 34 34 33 32 31 30 29 28 27 26 24 25 27 28 29 29 29 30 32 35 39 41 37 35 37 39 41 43 45 45 44 43 43 43 43 43 45 47 47 48 50 51 51 50 49 47 44 42 41 40 38 37 35 34 33 32 30 28 27 25 24 23 22 20 19 18
32 32 33 33 34 35 37 38 38 38 36 35 33 32 32 33 34 33 33 34 34 34 34 33 31 30 29 28 25 23 23 23 23 24 25 26 28 29 31 37 41 35 33 37 39 38 38 39 40 41 42 43 44 44 43 44 46 46 47 48 48 49 49 48 47 44 42 40 39 37 36 35 34 32 30 28 26 25 24 23 22 20 18 18 16
33 33 33 32 33 34 36 37 38 38 37 36 33 31 30 30 30 30 30 30 30 29 29 29 29 29 29 27 25 24 24 22 21 21 20 21 23 23 26 35 40 33 31 35 37 35 34 35 37 39 41 43 44 44 43 43 44 45 45 45 46 47 49 48 47 44 41 39 38 36 35 34 32 30 27 25 24 23 22 21 19 18 17 15 14
34 34 34 33 33 34 34 36 37 37 37 37 35 33 31 31 30 30 30 31 31 31 30 29 29 29 28 26 25 25 24 23 21 20 19 18 18 19 22 31 36 31 29 32 34 32 32 33 36 39 41 42 43 42 41 42 43 43 43 43 44 46 48 47 45 43 40 38 36 35 34 32 30 28 26 24 23 22 20 19 18 16 15 13 12
33 33 33 32 32 33 33 34 35 34 34 35 35 35 34 33 32 32 31 31 31 32 33 33 33 31 28 27 27 26 25 25 24 22 20 18 17 17 21 27 31 29 28 29 30 29 29 32 36 39 41 41 40 38 38 39 40 41 42 42 43 44 46 45 44 42 39 36 34 33 32 30 28 26 25 23 22 20 18 17 16 14 13 12 12
32 32 32 32 32 33 33 33 32 32 32 32 32 32 32 31 31 30 30 29 28 27 28 29 28 26 24 24 26 26 25 25 24 23 21 19 17 16 19 24 28 28 28 27 27 27 28 31 34 38 39 38 35 34 35 36 37 39 40 41 41 42 44 43 41 39 36 34 33 32 30 27 25 24 23 21 20 18 17 15 14 12 11 11 11
32 32 32 32 31 32 32 32 31 32 31 30 29 28 28 27 27 26 26 26 25 25 25 25 24 23 23 24 24 23 22 21 21 20 19 19 17 16 17 21 26 27 27 25 25 25 26 27 29 32 34 33 32 31 31 30 33 36 38 38 38 39 41 41 39 36 34 33 32 30 27 25 24 23 21 20 18 17 15 14 12 11 10 10 10
31 30 29 29 28 28 29 30 30 30 29 27 26 25 24 24 24 23 23 24 23 23 22 22 22 22 23 24 23 21 19 18 17 16 16 17 17 17 18 20 24 26 25 24 22 22 20 20 22 26 28 30 31 30 27 26 29 32 33 33 34 36 38 37 36 34 33 33 31 29 26 24 23 21 20 18 16 15 13 12 11 10 10 10 10
28 28 28 28 27 27 26 26 25 25 26 25 23 23 22 21 21 21 21 22 22 22 22 22 22 22 22 22 21 18 17 15 14 12 12 13 14 16 17 19 21 22 22 22 21 18 15 15 17 20 24 27 29 27 24 24 26 26 26 26 30 33 34 33 33 33 32 31 28 26 24 23 21 19 18 16 15 14 12 11 10 9 9 10 11
28 28 28 27 27 26 25 24 23 22 22 23 23 22 21 20 20 20 20 21 21 22 23 23 23 22 22 20 18 15 14 13 11 9 8 10 12 13 14 16 17 19 20 19 18 15 13 13 15 17 21 25 25 23 21 20 20 21 21 22 25 28 29 29 29 29 28 26 24 23 22 20 19 17 16 15 14 13 11 10 9 9 10 10 11
27 27 27 27 27 26 25 25 24 22 21 20 20 20 20 20 19 19 19 19 19 20 20 20 19 18 18 16 14 13 12 11 9 6 6 8 10 11 12 13 14 16 16 15 14 13 12 13 15 18 21 23 23 21 20 20 21 22 23 24 25 26 27 27 27 26 25 23 22 21 19 18 17 16 15 14 13 12 11 9 9 10 10 10 10
26 26 27 27 27 27 27 26 25 24 23 21 19 18 17 17 16 16 16 15 15 15 15 14 14 14 14 13 12 11 10 8 7 5 5 6 8 8 9 10 11 12 12 11 11 11 12 13 16 18 20 21 21 21 22 24 26 27 28 27 27 27 27 26 25 24 23 22 21 20 18 17 16 15 14 14 13 12 10 9 10 10 10 10 10
25 25 26 26 27 27 27 27 27 26 24 23 21 20 19 18 17 16 16 15 14 14 13 13 12 12 12 11 10 9 8 6 4 3 3 4 3 4 5 6 7 7 8 9 10 11 13 15 17 19 20 20 21 22 25 27 28 29 28 28 27 26 25 24 23 22 21 20 19 18 17 16 15 14 13 13 12 11 10 9 10 11 10 10 11
25 25 25 26 26 27 27 27 27 27 26 25 24 22 21 20 19 18 17 17 16 15 14 13 13 12 11 11 10 8 6 4 1 2 2 2 2 2 3 4 6 8 11 13 15 15 16 18 20 20 21 22 23 25 26 27 27 27 26 26 25 24 23 22 21 20 19 18 17 16 15 14 13 13 13 12 11 10 10 10 11 10 10 10 11
26 26 25 25 25 26 26 27 27 27 27 27 26 24 23 21 21 19 18 18 17 16 15 14 13 12 11 10 9 8 6 4 5 6 6 7 7 8 9 10 13 15 18 20 22 22 22 23 23 23 24 25 25 25 25 25 25 24 23 23 22 21 20 19 19 18 17 16 15 14 14 13 12 12 12 11 11 11 11 10 10 9 10 11 12
Wind_Direction
11 10 10 10 10 8 5 1 358 356 353 349 342 334 325 317 309 301 295 291 286 283 283 284 285 285 284 281 279 276 274 271 268 266 263 261 258 256 255 254 252 251 250 249 247 244 243 243 243 242 241 241 240 240 239 238 238 238 238 239 238 238 237 237 238 242 245 244 243 241 235 231 231 232 232 231 231 234 235 234 235 236 238 242 246
11 10 8 6 5 4 3 0 359 357 354 351 349 344 338 331 321 308 299 294 289 284 282 281 281 283 283 282 280 278 275 273 270 268 265 263 262 260 258 256 255 253 251 250 249 247 245 243 243 243 242 241 241 241 240 239 238 238 238 238 238 238 237 237 237 240 242 243 243 243 239 234 233 233 232 230 231 232 232 231 232 233 236 240 244
3 3 3 3 2 360 359 358 359 358 357 354 350 346 343 339 332 323 312 302 293 287 284 281 279 279 280 281 281 279 277 274 272 269 267 265 263 262 261 259 258 256 254 253 252 250 248 246 245 244 243 242 241 241 241 240 239 239 239 239 239 238 237 237 237 239 241 242 242 243 243 239 236 234 232 231 231 231 230 230 230 231 234 239 243
353 354 354 355 355 354 353 353 353 354 356 356 353 348 344 340 336 332 326 316 305 295 288 282 278 276 274 275 278 279 278 276 274 271 269 267 265 263 262 261 259 259 258 256 254 253 251 249 248 246 244 243 242 242 241 240 239 238 239 239 239 239 238 237 236 237 240 240 240 242 243 243 240 236 234 234 234 231 230 230 230 230 234 238 242
346 346 345 345 344 344 344 344 344 346 348 349 349 348 345 341 338 335 331 327 321 311 301 293 286 280 276 275 275 277 278 278 277 274 272 270 267 265 263 262 261 260 259 258 257 256 253 251 249 248 246 244 243 243 242 241 239 238 238 238 238 238 238 237 236 236 238 239 239 239 240 241 239 238 237 235 235 234 232 233 233 233 235 238 243
341 339 339 338 338 338 338 338 338 339 339 339 339 341 342 340 339 336 333 331 329 326 319 310 300 291 285 281 277 275 276 277 277 277 275 272 270 268 266 264 263 262 261 260 259 258 256 254 252 250 248 246 245 244 243 242 241 239 239 239 238 237 237 236 235 235 236 237 238 237 237 238 238 238 237 235 236 237 235 234 235 235 236 240 244
341 340 339 338 338 338 337 336 336 335 335 333 331 331 332 333 335 335 333 331 329 329 328 324 316 306 296 289 283 279 276 274 275 276 276 274 272 271 269 267 265 264 262 262 261 259 258 257 254 252 250 247 246 245 244 243 242 240 240 239 238 236 235 235 234 233 233 235 235 235 235 236 236 237 236 234 234 236 236 236 236 237 238 240 245
340 339 338 338 337 337 336 336 334 333 331 330 329 327 325 325 326 328 330 329 328 327 327 327 325 320 310 300 292 286 281 276 274 275 275 276 274 272 270 269 267 265 264 262 261 260 259 258 256 254 251 250 248 247 246 245 244 242 240 239 237 236 235 234 233 232 232 233 234 234 234 233 233 234 234 232 231 233 235 236 237 240 241 241 244
335 335 335 334 333 333 333 332 332 331 329 327 326 325 324 322 321 321 322 323 324 324 323 322 323 323 321 315 304 294 286 281 278 277 277 276 275 274 272 270 268 266 264 263 262 260 260 259 259 257 255 254 252 251 249 248 246 245 242 240 238 237 236 235 233 232 231 231 232 233 232 232 232 232 233 233 233 235 236 235 236 239 242 242 243
330 330 329 329 328 327 326 326 327 327 326 325 324 324 323 322 321 320 319 318 318 318 317 317 317 318 319 319 316 307 296 289 284 281 279 278 277 276 275 272 269 266 265 264 263 262 260 260 260 260 259 257 255 252 250 249 248 247 246 244 242 239 237 235 234 234 233 232 232 233 233 233 233 233 234 235 234 234 235 234 233 235 239 240 241
324 323 323 323 322 320 320 319 320 320 321 322 321 321 321 321 321 320 320 319 317 314 313 313 313 313 314 314 316 315 310 302 293 284 280 278 276 275 275 272 269 267 266 265 264 263 262 261 261 261 259 258 256 254 251 249 247 246 246 246 245 244 242 239 237 235 234 233 234 235 235 236 235 234 234 235 234 233 233 233 232 233 237 239 238
316 316 317 317 316 316 314 314 314 315 316 316 316 317 318 318 318 318 318 319 318 316 315 313 311 310 309 309 309 311 313 313 307 295 285 279 276 275 273 271 268 267 266 265 265 264 263 263 261 260 260 259 258 256 252 250 248 246 244 243 244 244 244 244 242 240 237 236 235 236 237 237 237 236 234 235 235 234 233 233 233 234 237 239 238
310 310 310 310 310 310 309 309 309 310 311 311 312 312 313 314 314 315 314 314 314 314 315 314 312 311 309 308 307 307 308 313 315 308 297 285 276 273 272 270 268 266 265 265 265 264 264 263 261 260 260 259 258 256 254 251 249 246 243 242 241 241 241 242 243 244 243 243 241 240 240 239 239 239 238 237 237 236 235 235 236 237 238 238 238
308 307 306 306 304 303 302 302 303 304 306 307 307 308 308 309 310 311 311 311 310 310 311 311 312 311 310 309 308 305 305 308 311 312 308 297 283 274 271 269 268 267 266 265 265 264 264 263 261 261 261 260 258 256 255 252 249 246 243 241 240 240 239 238 238 239 240 241 243 244 245 243 242 242 241 239 237 238 239 239 240 239 238 238 237
309 307 306 305 304 302 300 298 297 298 299 300 302 302 303 304 304 305 306 307 307 307 307 307 308 308 309 309 308 305 305 306 306 307 309 307 295 280 272 269 267 266 266 265 264 263 263 262 261 261 261 260 259 257 256 254 251 247 244 242 241 240 239 238 237 236 236 237 238 240 242 243 243 242 242 240 238 238 239 240 240 239 238 237 235
308 306 305 304 304 304 302 299 296 295 295 295 296 297 298 299 299 300 300 300 301 302 303 303 304 305 306 307 306 304 304 305 306 304 305 307 303 289 277 271 269 267 265 264 263 263 262 262 261 260 260 260 259 258 257 255 252 248 245 243 242 241 240 239 238 237 237 236 236 236 237 235 235 237 238 237 236 235 235 234 234 234 235 235 235
306 305 304 304 303 303 302 299 297 295 294 293 293 293 294 294 295 296 297 296 296 296 297 298 299 300 302 305 306 305 304 304 305 305 304 304 304 298 286 276 271 269 267 265 264 263 263 261 261 260 260 259 258 257 256 254 250 246 244 242 241 241 240 238 237 236 235 235 234 234 234 233 231 232 234 235 235 234 234 233 232 232 234 235 234
305 304 304 303 302 301 299 298 296 294 293 292 291 291 291 291 291 292 293 294 293 292 293 293 294 295 296 299 302 304 304 304 304 304 303 303 302 300 294 283 274 271 270 268 266 265 264 261 259 259 259 258 257 256 255 253 249 245 242 240 239 240 241 238 234 233 232 231 231 230 230 231 232 232 233 233 234 234 235 235 234 233 234 235 235
304 303 302 301 299 298 296 295 294 292 291 290 290 289 289 288 288 288 289 290 290 290 290 290 290 290 291 293 296 299 300 302 303 302 301 300 299 298 296 290 279 273 271 270 268 265 263 262 259 257 258 258 256 255 253 252 248 244 241 238 237 240 241 238 234 232 230 229 228 226 226 228 231 232 233 234 234 235 235 235 234 235 235 235 235
302 300 298 297 295 294 293 292 291 290 289 288 287 287 286 286 286 286 287 287 287 288 288 288 288 287 287 289 291 293 295 297 300 301 300 298 296 295 294 291 286 280 273 269 267 264 262 262 260 257 257 256 255 254 252 250 248 245 240 237 238 240 240 238 236 234 232 231 230 227 226 228 230 230 231 231 230 232 233 234 235 235 234 234 236
299 297 295 294 292 291 290 289 288 288 287 286 285 284 284 283 283 283 284 284 284 285 285 286 287 286 285 286 287 288 290 293 296 299 299 296 294 292 290 289 289 287 277 269 267 265 262 262 261 259 257 255 254 252 250 249 247 245 241 241 242 242 240 239 238 235 232 232 231 228 226 226 226 227 227 226 226 229 232 234 235 234 233 234 236
296 295 293 291 290 289 288 287 286 285 284 284 283 282 282 281 281 281 281 282 282 283 282 283 285 285 285 285 285 285 287 289 292 295 296 295 292 290 288 287 288 288 281 272 267 265 262 262 262 261 258 256 255 252 250 248 245 244 244 244 243 241 240 239 236 233 230 229 227 225 224 224 224 225 225 225 224 227 231 234 234 233 234 235 236
295 293 291 290 288 287 286 285 284 283 282 282 282 281 280 280 279 279 279 280 281 281 281 281 282 283 284 284 284 285 285 286 288 291 293 293 291 288 286 285 284 282 280 277 271 265 262 262 262 261 259 256 255 253 251 247 243 242 244 244 240 238 238 236 233 230 228 225 223 223 223 223 223 223 223 224 224 226 229 232 231 231 233 235 236
292 291 289 288 286 285 284 284 283 282 282 282 282 281 280 280 280 279 279 280 280 280 280 280 281 282 282 282 283 284 285 286 287 288 290 290 288 286 284 282 280 276 276 278 275 267 262 262 262 261 260 257 255 253 250 248 245 242 241 241 238 234 232 232 230 227 224 221 220 221 221 220 221 222 223 223 224 226 227 227 227 229 232 235 237
293 291 289 287 286 285 284 283 283 282 282 282 282 282 281 282 282 281 281 281 281 280 279 279 280 281 281 281 281 282 283 285 285 286 287 287 285 283 281 280 279 274 271 276 278 270 263 261 261 262 261 259 255 250 247 247 247 242 237 235 232 227 227 229 227 224 221 219 218 218 218 219 221 222 222 223 223 223 222 222 225 229 232 234 236
296 292 290 288 285 284 284 283 282 282 281 281 281 281 282 283 283 283 283 283 282 281 281 280 280 281 280 279 279 279 280 282 283 284 285 284 282 280 279 279 280 276 270 271 272 267 260 258 259 259 258 257 254 248 243 242 241 237 230 225 223 222 224 225 224 222 220 219 218 219 220 221 221 220 220 221 221 220 219 222 226 228 230 233 235
300 296 294 292 289 288 287 286 285 285 285 284 284 283 283 283 283 283 283 281 280 280 281 280 279 278 277 278 278 278 279 280 280 281 281 281 280 278 277 278 279 276 269 264 262 258 253 252 254 256 255 255 254 249 245 241 237 231 224 219 218 220 223 224 224 223 222 221 221 221 222 221 220 218 218 218 217 218 220 222 224 225 227 231 233
306 303 301 300 298 297 295 293 292 291 290 288 286 285 284 283 281 280 280 277 273 273 274 273 271 269 270 273 274 275 276 276 277 278 280 280 278 276 276 276 276 273 268 264 263 257 248 245 248 250 249 248 247 243 238 233 231 228 222 217 215 217 221 223 224 224 223 222 220 220 220 218 217 216 216 215 214 217 219 219 220 223 226 229 232
309 307 305 303 300 300 298 296 295 293 291 289 286 283 283 281 278 278 277 273 267 266 267 266 266 267 268 268 269 270 272 273 273 275 278 280 278 275 273 271 272 271 268 266 265 256 243 237 239 240 239 238 236 233 228 224 223 224 220 215 212 214 219 221 221 219 218 217 217 217 217 216 215 214 213 213 213 215 216 216 218 221 224 228 233
308 306 303 300 297 297 296 294 293 291 289 288 287 284 283 281 278 278 278 275 270 266 265 265 264 265 266 265 264 264 266 269 271 271 273 276 276 275 272 270 270 269 264 262 260 250 238 233 234 234 233 232 231 228 223 219 218 218 215 211 210 213 217 219 218 217 215 215 216 216 216 215 214 212 211 211 212 213 213 213 215 219 222 228 234
303 302 301 298 295 295 293 291 291 289 287 286 286 286 286 285 282 279 279 279 277 272 269 268 268 267 265 265 266 267 266 267 267 267 268 268 267 267 269 270 270 267 261 257 252 242 234 231 231 231 230 230 230 227 222 217 213 212 210 208 209 212 214 215 215 214 213 212 213 214 215 214 212 211 211 211 211 210 210 210 213 216 221 228 234
300 300 300 298 297 295 292 290 289 288 287 286 285 285 285 286 285 283 280 280 279 276 273 271 270 269 267 265 265 267 268 268 268 267 266 263 260 258 259 261 263 260 255 251 246 238 233 231 230 230 229 229 229 226 222 216 212 210 208 206 205 207 210 213 214 212 211 211 212 212 212 212 212 211 210 209 207 207 207 209 212 216 221 227 232
301 301 300 300 298 296 294 291 290 288 287 286 285 284 284 284 285 287 286 283 282 280 277 273 271 270 269 267 265 265 265 266 266 266 264 260 257 254 253 253 252 249 245 242 238 235 233 231 230 230 229 228 226 223 219 214 211 209 210 210 207 205 207 211 214 213 212 214 215 212 210 210 209 208 206 204 205 206 207 209 213 216 220 225 229
304 302 301 301 299 295 293 292 290 288 287 285 284 284 283 282 283 285 287 288 287 285 281 277 275 273 270 265 263 265 266 265 265 264 262 259 255 251 249 249 249 244 240 237 235 233 231 230 230 230 228 224 221 218 215 213 210 208 209 211 209 207 206 208 211 212 213 214 213 211 209 207 206 205 203 201 202 204 206 209 213 217 221 225 228
308 305 304 304 301 298 295 293 291 288 287 285 284 282 282 282 282 283 285 287 286 286 285 284 285 285 280 270 264 262 262 265 267 267 262 258 253 248 246 245 243 239 237 235 233 232 231 230 230 229 224 220 217 215 213 213 212 209 208 209 210 209 208 207 208 211 213 212 209 207 206 205 204 203 202 201 201 203 204 208 212 216 221 225 227
312 309 307 306 305 303 302 299 296 293 290 286 285 283 282 282 282 283 284 284 284 284 286 287 289 291 289 285 281 273 266 266 268 267 264 258 250 247 245 239 233 234 237 235 232 232 232 233 232 229 222 218 217 214 211 213 214 212 211 213 214 214 211 208 206 209 211 210 208 206 205 204 203 201 200 200 202 203 205 208 212 215 219 223 226
313 310 308 308 308 308 307 306 303 301 296 290 286 284 282 281 282 282 283 283 283 284 286 288 290 290 288 289 290 285 278 274 269 266 266 259 250 250 248 235 226 230 238 237 233 233 233 234 232 226 219 216 216 214 211 213 216 216 215 216 217 216 213 210 208 209 210 208 206 206 206 204 202 200 199 200 201 202 205 208 212 214 218 222 226
316 313 310 311 312 312 310 307 305 302 298 293 288 285 283 283 284 284 285 284 283 282 282 283 285 286 287 290 292 288 285 283 275 269 267 258 250 252 248 231 223 228 238 236 233 233 233 231 227 221 216 215 216 215 213 214 217 218 217 217 216 215 213 210 209 208 208 207 206 206 206 203 200 198 198 198 200 203 206 209 212 215 218 221 226
322 318 317 317 318 315 312 308 306 303 300 296 291 287 283 283 283 284 284 284 285 285 284 283 283 284 286 291 294 291 287 284 277 273 271 263 257 257 246 227 220 227 238 237 234 234 232 227 221 216 214 213 213 214 215 217 219 220 220 219 216 212 209 208 207 207 206 206 207 207 205 201 198 197 196 198 201 205 208 211 214 217 219 223 229
326 323 322 322 321 319 316 312 309 305 302 299 295 291 287 285 284 284 283 281 281 281 282 281 282 285 290 293 294 291 285 281 278 277 277 272 267 265 251 230 222 227 238 239 236 235 232 224 218 215 214 212 211 212 216 219 221 222 221 221 218 213 209 207 207 208 207 207 209 208 204 200 197 195 195 197 201 205 208 212 215 217 221 226 231
329 326 325 326 326 324 321 317 314 311 308 304 301 298 295 293 293 293 291 288 284 282 281 281 279 279 281 286 290 289 284 281 280 279 278 276 273 269 256 238 227 229 238 240 236 233 229 223 219 217 214 210 209 212 218 222 224 224 222 220 217 214 209 206 206 207 207 207 207 205 201 197 195 194 195 198 200 203 208 212 216 221 227 230 235
334 332 332 333 333 330 327 325 324 321 317 312 308 305 302 300 300 298 295 293 290 286 286 289 291 289 288 292 293 291 286 283 281 277 275 275 274 269 255 238 228 229 237 239 236 233 230 226 223 219 214 210 211 216 222 225 226 225 222 218 216 213 209 204 203 203 204 203 202 200 196 194 193 194 196 198 200 203 208 213 217 225 232 235 242
340 338 336 335 333 332 331 332 332 329 325 321 317 313 310 307 304 302 299 296 295 290 287 290 296 301 304 304 300 294 289 286 283 279 275 272 271 267 254 237 228 230 235 238 239 239 238 235 230 224 218 216 219 223 229 232 230 225 222 219 217 212 206 201 198 199 199 198 196 193 191 191 192 194 196 199 200 203 208 213 220 228 236 241 248
344 341 340 339 340 339 338 336 335 334 334 332 327 323 320 314 310 308 304 301 300 298 295 297 301 303 304 305 303 299 296 292 286 282 278 271 266 264 257 243 234 233 236 240 244 247 245 240 232 225 220 219 220 222 227 233 232 228 224 222 216 209 203 200 199 198 196 193 190 188 188 190 192 195 197 199 202 205 209 216 225 233 240 247 252
351 349 347 348 350 350 347 344 342 341 342 343 340 336 332 326 321 319 315 312 311 311 311 311 308 303 301 304 305 303 301 299 294 289 283 275 267 262 256 245 237 235 238 241 244 245 242 234 227 222 220 219 217 216 219 225 226 225 223 219 210 203 199 199 197 194 190 188 187 187 188 190 192 195 198 200 203 208 213 221 232 239 244 252 257
1 359 356 354 355 357 356 356 355 353 351 352 352 350 347 342 337 334 330 327 325 322 316 310 304 299 300 306 309 308 306 306 303 296 284 272 263 257 252 245 237 234 235 236 239 240 236 227 222 219 217 214 210 207 209 210 207 204 203 201 197 193 190 188 187 185 183 183 185 186 188 190 193 196 200 203 206 212 218 227 238 244 249 256 262
9 7 4 2 2 2 2 2 3 2 0 0 359 356 354 351 346 340 335 330 326 321 314 308 306 306 309 313 315 316 316 314 310 300 278 260 252 250 248 244 237 232 231 231 234 234 226 216 212 210 207 202 197 193 188 181 175 175 177 177 178 179 178 177 178 178 178 180 182 184 187 191 194 197 202 206 210 217 223 232 242 249 255 262 271
17 15 12 10 9 9 8 9 9 8 8 8 6 2 359 356 351 346 341 336 333 331 328 326 325 326 327 327 326 326 327 324 317 299 268 251 245 244 241 235 229 226 225 222 217 210 200 195 195 196 193 189 184 178 172 166 164 165 167 167 169 172 173 173 174 175 176 178 181 183 187 192 197 201 207 211 216 223 230 238 249 257 262 270 280
24 23 21 19 17 16 15 15 14 13 13 14 13 12 11 8 5 3 359 355 352 350 349 347 346 346 346 347 345 343 342 338 319 279 244 239 243 243 234 220 210 206 201 189 179 175 174 175 177 177 175 173 170 167 164 163 163 164 165 165 166 168 170 171 172 174 176 179 182 185 190 195 200 204 210 215 222 231 240 248 257 264 268 276 287
28 30 29 26 25 24 23 22 21 19 18 18 18 17 18 17 16 15 14 12 9 7 6 4 3 2 4 6 6 6 10 17 55 157 148 123 109 122 146 157 161 164 160 152 147 146 150 155 159 160 160 160 160 160 160 160 161 161 163 164 164 165 167 169 171 174 177 180 185 189 194 199 203 208 215 222 229 241 252 257 261 268 276 283 290
30 32 33 33 32 30 28 28 28 26 24 23 21 20 21 22 22 22 22 21 20 19 18 16 15 15 19 27 32 36 47 79 108 114 107 102 106 115 123 130 137 140 140 137 136 137 141 144 148 149 151 152 153 154 155 156 157 157 159 161 162 164 166 167 170 175 178 183 189 193 196 202 207 212 219 227 235 246 256 261 266 278 289 292 295